{"data":{"norad_id":65317,"intl_designator":"2025-188C","name":"NAOS","alt_names":[],"object_type":"PAYLOAD","status":"ACTIVE","operator":null,"country":"LUXE","launch_date":"2025-08-26","launch_site_code":"AFWTR","launch_vehicle":null,"mission":null,"orbit_class":"UNKNOWN","rcs_meters":null,"size_class":null,"mass_kg":null,"dimensions":null,"purposes":[],"wikipedia_slug":null,"has_3d_model":false,"image_url":null,"decayed_at":null,"tle_current":{"epoch":"2026-09-20T22:20:41.227872Z","epoch_age_seconds":121614,"freshness":"FRESH","line1":"1 65317U 25188C   26263.93103273  .00004969  00000+0  13301-3 0  9991","line2":"2 65317  97.1956 337.5164 0001419 108.6706 251.4694 15.38480662 59988","mean_motion":15.38480662,"eccentricity":0.0001419,"inclination_deg":97.1956,"raan_deg":337.5164,"arg_perigee_deg":108.6706,"mean_anomaly_deg":251.4694,"bstar":0.00013301,"rev_number":5998,"period_min":93.598836538382,"perigee_km":449.63247089559,"apogee_km":451.57046687306,"semimajor_km":6828.7384688843,"source":"CELESTRAK","updated_at":"2026-09-21T09:00:15.249326Z"}}}